Lima, OH

4:49 PM EDT on August 21, 2017 (GMT -0400)
Lima Allen County

Weather History for KAOH - August, 2013

Change the Weather History Date:

Friday, August 30, 2013

  Actual Average (KFDY) Record (KFDY)
Temperature  
Mean Temperature 76 °F -  
Max Temperature 89 °F 80 °F 99 °F (1953)
Min Temperature 64 °F 59 °F 44 °F (1976)
Cooling Degree Days 12    
Growing Degree Days 26 (Base 50)    
Moisture  
Dew Point 65 °F    
Average Humidity 77    
Maximum Humidity 94    
Minimum Humidity 42    
Precipitation  
Precipitation 0.01 in - - ()
Sea Level Pressure  
Sea Level Pressure 29.95 in    
Wind  
Wind Speed 4 mph (SSW)    
Max Wind Speed 12 mph    
Max Gust Speed -    
Visibility 5 miles    
Events Fog    
Averages and records for this station are not official NWS values.
T = Trace of Precipitation, MM = Missing Value Source: NWS Daily Summary

Daily Weather History Graph

Daily Weather History Graph

Search for Another Location

Airport or City:

Trip Planner

Search our weather history database for the weather conditions in past years. The results will help you decide how hot, cold, wet, or windy it might be!

Date:

Astronomy

Aug. 30, 2013 Rise Set
Actual Time 7:01 AM EDT 8:11 PM EDT
Civil Twilight 6:33 AM EDT 8:39 PM EDT
Nautical Twilight 5:59 AM EDT 9:12 PM EDT
Astronomical Twilight 5:24 AM EDT 9:48 PM EDT
Moon 1:38 AM EDT (8/30) 4:27 PM EDT (8/30)
Length of Visible Light 14h 06m
Length of Day
13h 09m
Waning Crescent, 29% of the Moon is Illuminated
Aug 30
Waning Crescent
Sep 5
New
Sep 12
First Quarter
Sep 19
Full
Sep 26
Last Quarter

Hourly Weather History & Observations

Time (EDT) Temp. Heat Index Dew Point Humidity Pressure Visibility Wind Dir Wind Speed Gust Speed Precip Events Conditions
12:53 AM 71.1 °F - 66.9 °F 87% 30.00 in 5.0 mi ESE 4.6 mph - N/A   Clear
1:53 AM 71.1 °F - 66.9 °F 87% 30.00 in 5.0 mi SE 4.6 mph - N/A   Clear
2:53 AM 69.1 °F - 66.0 °F 90% 30.00 in 3.0 mi Calm Calm - N/A   Clear
3:06 AM 69.8 °F - 66.2 °F 88% 30.01 in 1.8 mi Calm Calm - N/A   Clear
3:25 AM 69.8 °F - 66.2 °F 88% 30.01 in 2.5 mi Calm Calm - N/A   Clear
3:44 AM 66.2 °F - 62.6 °F 88% 30.01 in 1.2 mi Calm Calm - N/A   Clear
3:53 AM 66.0 °F - 63.0 °F 90% 29.99 in 1.0 mi Calm Calm - N/A   Clear
4:09 AM 69.8 °F - 66.2 °F 88% 30.01 in 3.0 mi SSE 4.6 mph - N/A   Clear
4:53 AM 66.0 °F - 63.0 °F 90% 29.99 in 1.8 mi Calm Calm - 0.01 in   Clear
5:03 AM 66.2 °F - 62.6 °F 88% 30.01 in 0.8 mi Calm Calm - N/A   Mist
5:12 AM 66.2 °F - 64.4 °F 94% 30.01 in 0.5 mi Calm Calm - N/A Fog Fog
5:36 AM 64.4 °F - 62.6 °F 94% 30.00 in 3.0 mi SSE 4.6 mph - N/A   Partly Cloudy
5:48 AM 66.2 °F - 62.6 °F 88% 30.00 in 2.0 mi SE 3.5 mph - N/A   Clear
5:53 AM 64.9 °F - 62.1 °F 90% 29.98 in 1.8 mi Calm Calm - N/A   Clear
6:06 AM 64.4 °F - 62.6 °F 94% 30.00 in 2.5 mi SSE 3.5 mph - N/A   Clear
6:30 AM 68.0 °F - 64.4 °F 88% 30.01 in 3.0 mi SSE 5.8 mph - N/A   Clear
6:49 AM 66.2 °F - 62.6 °F 88% 30.01 in 2.0 mi Calm Calm - N/A   Clear
6:53 AM 66.0 °F - 62.1 °F 87% 29.99 in 2.0 mi SSE 3.5 mph - N/A   Clear
7:04 AM 68.0 °F - 64.4 °F 88% 30.01 in 3.0 mi SSE 5.8 mph - N/A   Clear
7:14 AM 69.8 °F - 64.4 °F 83% 30.00 in 2.5 mi SSE 6.9 mph - N/A   Clear
7:53 AM 69.1 °F - 66.0 °F 90% 29.99 in 2.5 mi Calm Calm - N/A   Clear
8:15 AM 69.8 °F - 66.2 °F 88% 30.00 in 3.0 mi SSE 5.8 mph - N/A   Clear
8:53 AM 72.0 °F - 66.9 °F 84% 29.99 in 5.0 mi SW 4.6 mph - N/A   Haze
9:53 AM 75.9 °F - 69.1 °F 79% 29.98 in 7.0 mi WSW 4.6 mph - N/A   Clear
10:53 AM 81.0 °F 83.8 °F 68.0 °F 65% 29.97 in 10.0 mi WSW 9.2 mph - N/A   Clear
11:53 AM 81.0 °F 83.3 °F 66.9 °F 62% 29.96 in 10.0 mi SW 9.2 mph - N/A   Partly Cloudy
12:53 PM 84.0 °F 86.5 °F 66.9 °F 56% 29.94 in 10.0 mi SW 10.4 mph - N/A   Partly Cloudy
1:53 PM 86.0 °F 87.6 °F 64.9 °F 49% 29.91 in 10.0 mi SW 11.5 mph - N/A   Scattered Clouds
2:53 PM 88.0 °F 90.3 °F 66.0 °F 48% 29.90 in 10.0 mi SW 10.4 mph - N/A   Mostly Cloudy
3:53 PM 88.0 °F 89.3 °F 64.0 °F 45% 29.89 in 10.0 mi WSW 8.1 mph - N/A   Partly Cloudy
4:53 PM 89.1 °F 90.0 °F 63.0 °F 42% 29.86 in 10.0 mi WSW 9.2 mph - N/A   Clear
5:53 PM 88.0 °F 88.7 °F 63.0 °F 43% 29.84 in 10.0 mi WSW 9.2 mph - N/A   Clear
6:53 PM 87.1 °F 88.9 °F 64.9 °F 48% 29.82 in 10.0 mi SW 8.1 mph - N/A   Clear
7:53 PM 82.0 °F 84.1 °F 66.0 °F 58% 29.83 in 10.0 mi West 4.6 mph - N/A   Clear
8:53 PM 77.0 °F - 66.0 °F 69% 29.83 in 10.0 mi South 3.5 mph - N/A   Clear
9:53 PM 75.9 °F - 66.9 °F 74% 29.84 in 9.0 mi South 5.8 mph - N/A   Clear
10:53 PM 77.0 °F - 66.0 °F 69% 29.82 in 9.0 mi South 8.1 mph - N/A   Scattered Clouds
11:53 PM 77.0 °F - 66.0 °F 69% 29.79 in 10.0 mi South 8.1 mph - N/A   Clear